www.pogodaiklimat.ru

Погода и климат >> Архив погоды >> Россия >> Якутия >> Джалинда


АРХИВ ПОГОДЫ в Джалинде

Время (UTC), дата Ветер
(напр.,м/с)
 
Видим.   Явления Облачность Т
(С)
Тd
(С)
f
(%)
Тe
(С)
Тes
(С)
Комфортность P
(гПа)
Po
(гПа)
Тmin
(С)
Tmax
(С)
R
(мм)
R24
(мм)
S
(см)
09 19.03 штиль 0 50 км ясно -15.6 -21.6 60 -16 -15 1021.4 1013.1
12 19.03 штиль 0 50 км ясно -22.4 -26.4 70 -22 -22 1021.1 1012.5 -15.6
15 19.03 штиль 0 50 км ясно -27.1 -28.8 85 -27 -27 1020.9 1012.1
18 19.03 50 км ясно -31.0 -32.8 84 1020.5 1011.7
21 19.03 штиль 0 50 км ясно -32.2 -34.0 84 -32 -32 опасность
обморожения
1020.0 1011.0
00 20.03 штиль 0 50 км 3/0
[Ci sp]
-32.1 -33.7 86 -32 -32 опасность
обморожения
1019.7 1010.7 -32.2 31
03 20.03 штиль 0 50 км 4/0
[Ci sp]
-22.0 -25.3 74 -22 -19 1019.2 1010.6
06 20.03 штиль 0 50 км 5/0
[Ci sp]
-13.4 -19.5 60 -13 -11 1018.2 1009.9
09 20.03 штиль 0 50 км 4/0
[Ci sp]
-10.6 -16.9 60 -11 -10 1018.3 1010.2
12 20.03 штиль 0 50 км 6/0
[Ci sp]
-18.2 -22.3 70 -18 -18 1019.5 1011.1 -10.4
15 20.03 штиль 0 50 км ясно -20.8 -22.0 90 -21 -21 1019.8 1011.4
18 20.03 штиль 0 50 км ясно -25.0 -26.2 90 -25 -25 1020.8 1012.2
21 20.03 штиль 0 50 км ясно -28.2 -29.4 89 -28 -28 1020.2 1011.4
00 21.03 штиль 0 50 км 3/0
[Ci sp]
-28.7 -29.9 89 -29 -28 1019.4 1010.6 -28.7 31
03 21.03 штиль 0 50 км 3/0
[Ci fib]
-18.0 -21.4 75 -18 -15 1017.6 1009.4
06 21.03 Ю 1 50 км 4/0
[Ci sp]
-9.7 -14.9 66 -12 -9 1016.3 1008.2
09 21.03 штиль 0 50 км 9/0
[Ci sp]
-8.0 -13.1 67 -8 -8 1014.4 1006.3
12 21.03 штиль 0 50 км 10/0
[Ci sp]
-12.8 -16.3 75 -13 -13 1010.1 1001.9 -7.8
15 21.03 Ю 3 50 км 10/0
[Cs]
-13.2 -15.2 85 -19 -19 1004.5 996.3
18 21.03 Ю 3 20 км слаб. снег 10/0
[Cs]
-11.4 -12.0 95 -17 -17 1001.1 993.1
21 21.03 Ю 3 10 км слаб. снег 10/0
[As op]
-10.3 -10.9 95 -16 -16 997.4 989.4
00 22.03 штиль 0 10 км слаб. снег 10/0
[As op]
-9.4 -9.7 98 -10 -10 994.6 986.6 -13.2 3 31
03 22.03 штиль 0 50 км {снег} 8/3 600 м
[Sc Cs]
-7.2 -8.9 88 -8 -6 993.8 985.8
06 22.03 штиль 0 50 км {снег} 9/0
[Cs]
-8.9 -13.3 70 -9 -7 993.8 985.8
09 22.03 СЗ 5 50 км позёмок 10/0
[Cs]
-11.7 -14.5 80 -20 -19 996.6 988.5
12 22.03 СЗ 5 20 км слаб. снег {метель} 10/0
[As op]
-17.1 -19.7 80 -26 -26 999.7 991.4 -7.0 0.5
15 22.03 СЗ 5 10 км слаб. снег {метель} 10/0
[As op]
-19.3 -21.9 80 -29 -29 1002.1 993.8
18 22.03 СЗ 5 50 км слаб. снег {метель} 10/0
[As op]
-21.1 -23.6 80 -31 -31 опасность
обморожения
1004.3 995.8
21 22.03 СЗ 5 50 км позёмок {снег} 8/0
[Ci sp]
-24.2 -26.0 85 -35 -35 опасность
обморожения
1005.9 997.4
00 23.03 СЗ 5 50 км позёмок {снег} 6/0
[Ci sp]
-22.7 -25.2 80 -33 -33 опасность
обморожения
1007.6 999.1 -24.2 0.8 31
03 23.03 СЗ 5 50 км позёмок 10/0
[Cs]
-21.3 -24.6 75 -32 -30 опасность
обморожения
1009.7 1001.3
06 23.03 СЗ 5 50 км позёмок 6/0 1500 м
[Ci sp]
-19.4 -22.7 75 -29 -28 1011.1 1002.7
09 23.03 С 3 50 км {метель} 10/0
[Cs]
-19.3 -22.6 75 -27 -26 1013.5 1005.1
12 23.03 С 3 50 км {метель} 6/0
[Ci sp]
-21.9 -24.5 79 -30 -30 1015.5 1006.9 -19.3
15 23.03 штиль 0 50 км ясно -25.2 -27.1 84 -25 -25 1016.1 1007.5
18 23.03 штиль 0 50 км ясно -28.1 -29.8 85 -28 -28 1017.0 1008.2
21 23.03 штиль 0 50 км ясно -35.2 -36.8 85 -35 -35 опасность
обморожения
1017.9 1008.9
00 24.03 штиль 0 50 км ясно -35.7 -38.2 78 -36 -35 опасность
обморожения
1019.9 1010.1 -36.7 31
03 24.03 штиль 0 50 км ясно -24.4 -27.6 75 -24 -21 1018.3 1009.7
06 24.03 штиль 0 50 км ясно -17.6 -23.5 60 -18 -14 1017.7 1009.3
09 24.03 штиль 0 50 км ясно -17.1 -23.0 60 -17 -16 1018.6 1010.2
12 24.03 штиль 0 50 км ясно -24.4 -28.4 69 -24 -24 1019.2 1010.6 -17.1
15 24.03 штиль 0 50 км ясно -30.0 -31.7 85 -30 -30 1019.8 1011.0
18 24.03 штиль 0 50 км ясно -34.0 -35.6 85 -34 -34 опасность
обморожения
1020.8 1011.8
21 24.03 штиль 0 50 км ясно -35.3 -37.1 83 -35 -35 опасность
обморожения
1020.5 1011.5
00 25.03 штиль 0 50 км ясно -35.4 -37.1 84 -35 -34 опасность
обморожения
1020.7 1011.7 -35.4 31
03 25.03 штиль 0 50 км 3/0
[Ci fib]
-22.9 -27.7 65 -23 -19 1020.7 1012.1
06 25.03 штиль 0 50 км ясно -14.5 -22.7 50 -15 -11 1020.1 1011.8
09 25.03 штиль 0 50 км ясно -11.7 -20.0 50 -12 -11 1018.8 1010.7
12 25.03 штиль 0 50 км ясно -19.8 -25.6 60 -20 -20 1019.1 1010.7 -11.5
15 25.03 штиль 0 50 км ясно -26.8 -29.3 79 -27 -27 1020.6 1011.8
18 25.03 штиль 0 50 км ясно -28.8 -30.6 84 -29 -29 1019.3 1010.5
21 25.03 штиль 0 50 км 3/0
[Ci sp]
-27.7 -29.5 85 -28 -28 1019.4 1010.6
00 26.03 штиль 0 50 км 6/0
[Ci sp]
-27.2 -29.0 85 -27 -26 1019.4 1010.6 -28.8 31
03 26.03 штиль 0 50 км ясно -18.2 -23.2 65 -18 -14 1018.5 1010.1
06 26.03 Ю 1 50 км 4/0
[Ac trans Ci sp]
-7.8 -16.3 50 -10 -7 1017.6 1009.5

 

Местоположение метеостанции Джалинда (Якутия, Россия): широта 70.13 долгота 113.90 высота над уровнем моря 62 м.

В архиве по умолчанию представлена погода в Джалинде за последнюю неделю. Архивные данные за месяц целиком и за предыдущие месяцы, начиная с января 2011 года, Вы можете получить, выбрав интересующий диапазон дат из раскрывающегося списка и нажав кнопку "Ввод!".


*Определитесь, кто Вы:
робот инопланетянин человек

Внимание! Время в таблицах - всемирное. Для получения местного времени необходимо прибавить поправку, которая равна 9 ч.

Смотрите также архив погоды в соседних городах и на ближайших метеорологических станциях:

Погода в Оленеке (Якутия, Россия) (191 км)
Погода в Саскылахе (Якутия, Россия) (205 км)
Погода в Сухане (Якутия, Россия) (241 км)
Погода в Анабаре (Якутия, Россия) (344 км)
Погода на Усть-Оленеке (Якутия, Россия) (380 км)
Погода в Полярном (Якутия, Россия) (383 км)
Погода в Ярольине (Якутия, Россия) (399 км)
Погода в Тюмяти (Якутия, Россия) (400 км)
Погода в Джарджане (Якутия, Россия) (424 км)
Погода в Шелагонцах (Якутия, Россия) (432 км)

Пояснения к столбцам:

Ветер - указаны скорость ветра в м/с - средняя за 10 мин, порывы в срок и между сроками (в фигурных скобках) и направление, откуда дует ветер: С - северный, СВ - северо-восточный, В - восточный, ЮВ - юго-восточный, Ю - южный, ЮЗ - юго-западный, З - западный, СЗ - северо-западный.
Видимость - горизонтальная дальность видимости в метрах или километрах. При видимости от 1 до 10 км при отсутствии осадков обычно наблюдается дымка, при ухудшении видимости до 1 км и менее - туман. В сухую погоду видимость может ухудшаться дымом, пылью или мглою.
Явления - указаны атмосферные явления, наблюдавшиеся в срок или в последний час перед сроком; фигурными скобками обозначены явления, наблюдавшиеся между сроками (за 1-3 часа до срока); квадратными скобками обозначены град или гололедные отложения с указанием их диаметра в мм.
Облачность - указаны через наклонную черту общая и нижняя облачность в баллах и высота нижней границы облаков в метрах; квадратными скобками обозначены формы облаков: Ci - перистые, Cs - перисто-слоистые, Cc - перисто-кучевые, Ac - высококучевые, As - высокослоистые, Sc - слоисто-кучевые, Ns - слоисто-дождевые, Cu - кучевые, Cb - кучево-дождевые. Подробнее классификацию облаков см. в Атласе облаков (PDF).
T - Температура воздуха - температура, измеренная на высоте 2 м над землей.
Td - Температура точки росы - температура, при понижении до которой содержащийся в воздухе водяной пар достигнет насыщения.
f - Относительная влажность воздуха - влажноcть воздуха, измеренная на высоте 2 м над землей.
Te - Эффективная температура - температура, которую ощущает одетый по сезону человек в тени. Характеристика душности погоды. При расчете учитывается влияние влажности воздуха и скорости ветра на теплоощущения человека.
Tes - Эффективная температура на солнце - температура, которую ощущает человек, с поправкой на солнечный нагрев. Характеристика знойности погоды. Зависит от высоты солнца над горизонтом, облачности и скорости ветра. Ночью, в пасмурную погоду, а также при ветре 12 м/с и более поправка равна нулю.
P - Атмосферное давление - приведенное к уровню моря атмосферное давление.
Po - Атмосферное давление - измеренное на уровне метеостанции атмосферное давление.
Tmin - Минимальная температура - минимум температуры воздуха на высоте 2 м над землей.
Tmax - Максимальная температура - максимум температуры воздуха на высоте 2 м над землей.
R - Количество осадков - Количество выпавших осадков за период времени, мм. При наведении курсора мыши на число - период времени, за который выпало указанное количество осадков.
R24 - Количество осадков - Количество выпавших осадков за 24 часа, мм.
S - Снежный покров - Высота снежного покрова, см. При наведении курсора мыши на число - состояние снежного покрова и степень покрытия местности в баллах.